星链-36356(STARLINK-36356)

导读

STARLINK-36356(NORAD编号68242)是美国SpaceX公司星链(Starlink)项目的低轨卫星,于2024年12月8日发射,截至2026年4月已在轨运行约488天。该卫星采用Starlink V1.0平台,轨道倾角43.001°,近地点约355公里,远地点约357公里,轨道周期约91.66分钟,属于低地球轨道通信卫星。它是SpaceX全球卫星互联网星座的组成部分,旨在为全球提供高速低延迟宽带服务,助力缩小数字鸿沟,同时服务军事、航空等领域通信需求,目前该卫星运行状态正常。

Basic Information
目录编号:
68242
目录名称:
STARLINK-36356
国际标识:
2026-054L
轨道中心:
EARTH
卫星名称:
星链-36356
卫星全名:
星链-36356(STARLINK-36356)
卫星状态:
在轨 (已飞行179 天)
发射日期:
2026-03-17 UTC
国别 :
美国 (US)
星等 :
--
This satellite is enrolled in the Space Conjunction Data Service (SCDS) and the current flight risk assessment level is: No High Risk
Orbit Information
数据来源 国际轨道数据
星历时间: 2026-09-12T08:11:59+0800
12小时前
查看轨道信息
半长轴: 6840.834km
偏心率: 0.0002005
轨道倾角: 53.160°
近地点辐角 70.302°
升交点赤经 149.672°
平近点角 289.820°
近地点: 461.325km
远地点: 464.069km
周期: 93.848分钟
每日圈数: 15.344021
Detailed Information
固有亮度:
5
最大亮度:
2.5
卫星平台:
Starlink V1.0
覆盖范围:
全球
运营商:
太空探索技术公司
运营商所在国:
美国
制造商(研发单位):
太空探索技术公司
制造商所在国:
美国
使用方式:
暂无
Satellite Introduction
Starlink 计划是 SpaceX 推出的全球卫星互联网项目,通过发射低轨道卫星,为全球尤其是偏远地区提供高速、低延迟的互联网服务。自 2019 年起,Starlink 已部署数千颗卫星,旨在缩小全球数字鸿沟,推动互联网普及。该项目还为军事、航空等行业提供通信支持,带来广泛经济效益。
2D Orbit Map
3D Orbit Map
Orbit Altitude Analysis Chart
Orbit Inclination Analysis Chart
Orbit Comprehensive Analysis Chart
View Comprehensive Chart
Conjunction Data List
Event ID Objects TCA Miss Dist (km) Collision Risk Probability Collision Risk Index (CRI) Action
CDM_260912-124805-835706-824221
2026-09-12T
12:48:02+0000
1.382 km
极远距离
7.145039E-6 低风险 0.52
CDM_260914-155006-824206-916121
2026-09-14T
15:50:16+0000
1.767 km
极远距离
1.907156E-6 低风险 0.41
CDM_260913-160905-835706-824221
2026-09-13T
16:09:06+0000
2.302 km
极远距离
1.715778E-6 低风险 0.4
CDM_260914-141606-824206-916121
2026-09-14T
14:16:29+0000
1.960 km
极远距离
1.461487E-6 低风险 0.38
CDM_260914-095805-825006-824221
2026-09-14T
09:58:13+0000
2.783 km
极远距离
1.254342E-6 低风险 0.37
CDM_260914-132305-317506-824221
2026-09-14T
13:23:57+0000
2.837 km
极远距离
1.10929E-6 低风险 0.36
Miss Distance Evolution Trend with All Objects
Collision Probability Evolution Trend with All Objects